This demonstration page uses our WeatherBlox Daily Observations layout. Learn more.

Hourly Observations for July 16, 2019

Temp ( °F °C ) Dew Point ( °F °C ) Humidity (%) Winds ( mph kmh ) Pressure ( in mb ) Visibility ( mi km ) Precip ( " mm )
12:53 am 00:53 Partly Cloudy 73 22.8 71 21.7 94 94 Calm 30.06 1018 10 16.09344 0 0
1:53 am 01:53 Mostly Cloudy with Light Rain 73 22.8 71 21.7 94 94 Calm 30.06 1018 10 16.09344 0.001 0.001
2:53 am 02:53 Mostly Cloudy 73 22.8 71 21.7 94 94 SSE 3 6 30.06 1018 10 16.09344 0.001 0.001
3:53 am 03:53 Mostly Cloudy 73 22.8 71 21.7 94 94 Calm 30.03 1017 10 16.09344 0 0
4:53 am 04:53 Partly Cloudy 73 22.8 72 22.2 96 96 Calm 30.03 1017 10 16.09344 0 0
5:53 am 05:53 Mostly Cloudy 73 22.8 71 21.7 94 94 Calm 30.03 1017 10 16.09344 0 0
6:53 am 06:53 Mostly Cloudy 73 22.8 72 22.2 96 96 VRB 3 6 30.03 1017 10 16.09344 0 0
7:53 am 07:53 Mostly Cloudy 74 23.3 72 22.2 94 94 Calm 30.06 1018 10 16.09344 0 0
8:53 am 08:53 Mostly Cloudy 77 25 72 22.2 85 85 Calm 30.06 1018 10 16.09344 0 0
9:53 am 09:53 Mostly Sunny 78 25.6 72 22.2 82 82 SSE 5 7 30.03 1017 10 16.09344 0 0
10:53 am 10:53 Mostly Sunny 82 27.8 73 22.8 74 74 VRB 6 9 30.03 1017 10 16.09344 0 0
11:53 am 11:53 Mostly Sunny 84 28.9 72 22.2 67 67 S 9 15 30.03 1017 10 16.09344 0 0
12:53 pm 12:53 Mostly Sunny 86 30 72 22.2 63 63 SW 9 15 30 1016 10 16.09344 0 0
1:53 pm 13:53 Partly Cloudy 88 31.1 72 22.2 59 59 S 9 15 29.97 1015 10 16.09344 0 0
2:53 pm 14:53 Mostly Cloudy 88 31.1 69 20.6 54 54 S 12 19 29.94 1014 10 16.09344 0 0
3:14 pm 15:14 Cloudy with Rain 81 27.2 72 22.2 74 74 WSW 18 30 29.97 1015 1.25 2.01168 0.07 1.778
3:21 pm 15:21 Cloudy with Heavy Rain 77 25 73 22.8 88 88 SW 6 9 30 1016 0.5 0.804672 0.21 5.334
3:27 pm 15:27 Mostly Cloudy with Light Rain 77 25 73 22.8 88 88 VRB 5 7 30 1016 2 3.218688 0.22 5.588
3:34 pm 15:34 Mostly Cloudy with Light Rain 80 26.7 75 23.9 85 85 W 5 7 29.97 1015 7 11.265408 0.22 5.588
3:53 pm 15:53 Mostly Sunny 82 27.8 76 24.4 82 82 W 6 9 29.94 1014 10 16.09344 0.22 5.588
4:53 pm 16:53 Mostly Sunny 84 28.9 74 23.3 72 72 SW 9 15 29.94 1014 10 16.09344 0.01 0.254
5:53 pm 17:53 Mostly Sunny 82 27.8 71 21.7 69 69 W 8 13 29.94 1014 10 16.09344 0 0
6:53 pm 18:53 Sunny 83 28.3 72 22.2 70 70 WNW 5 7 29.91 1013 10 16.09344 0 0
7:53 pm 19:53 Mostly Sunny 82 27.8 72 22.2 72 72 W 5 7 29.91 1013 10 16.09344 0 0
8:53 pm 20:53 Partly Cloudy 78 25.6 75 23.9 90 90 Calm 29.91 1013 10 16.09344 0 0
9:53 pm 21:53 Cloudy 78 25.6 74 23.3 87 87 VRB 3 6 29.91 1013 10 16.09344 0.001 0.001
10:53 pm 22:53 Mostly Cloudy 75 23.9 74 23.3 96 96 Calm 29.94 1014 10 16.09344 0.03 0.762
11:30 pm 23:30 Cloudy with Rain 75 23.9 73 22.8 94 94 SW 9 15 29.97 1015 2 3.218688 0.07 1.778
11:38 pm 23:38 Mostly Cloudy with Rain 74 23.3 71 21.7 91 91 SSW 5 7 29.97 1015 6 9.656064 0.08 2.032
11:53 pm 23:53 Mostly Cloudy with Light Rain 73 22.8 71 21.7 94 94 SW 3 6 29.94 1014 10 16.09344 0.08 2.032

Powered by AerisWeather